Showing default

BEIDOU 3M14, 43623

Orbit data source: Space-Track

BEIDOU 3M14, 43623 is a payload satellite owned by CNSA (CN) in MEO that was launched on Wed, 19 Sep 2018 UTC via a CHANG ZHENG 3B/YZ-1 launch vehicle from the Xichang Space Center, China (XSC). Payload-class satellites include a variety of spacecraft equipped with specific instruments for various scientific and technological missions. These include communications satellites like Starlink; space stations such as the ISS; scientific satellites like the Hubble; Earth observation satellites from companies like Planet Labs, Umbra, and HawkEye 360; GPS; miniature CubeSats for education and research; and military/defense satellites.

Loading next visibility...
Identifier
43623, 2018-072B
Orbit
MEO
Country
Flag of CNCN / PRC
Related business
Manufacturer
CAST
Mission
Operational Defense Navigation
Bus & Motor
BD-3M/SAR, Unknown motor
Mass
1,014 kg wet, ~850 kg dry
Launch date (UTC)
2018-09-19 (7 years ago)
Launch vehicle
CHANG ZHENG 3B/YZ-1
Launch site
Xichang Space Center, China (XSC)
Object type
Payload
Rocket body
Debris
Shape & HBR
Box + 2 Pan, 5.0 m
Radar Cross Section
8.984 m², Large (>1 m²)

Expand to show TLE details & history
Last TLE update: 10 hours ago

TLE from 10 hours ago
0 BEIDOU 3M14
1 43623U 18072B   25308.41700939 -.00000019  00000-0  00000-0 0  9998
2 43623  56.4286  70.0829 0002574 357.4781   2.5004  1.86230784 48462
Epoch: 2025-11-04T10:00Z
TLE epoch observation values (Epoch: 2025-11-04T10:00:29.611Z)
Latitude
0.00001°
Longitude
-123.96555°
Altitude
21,521.198 km
Speed
3.78 km/s
True Right ascension
04h 40m 14s
True Declination
0° 00' 00"
Sunlit
Object was in daylight at epoch
Visualization orbit readout
Latitude
Unknown
Longitude
Unknown
Altitude
Unknown
Speed
Unknown
Apparent Right ascension
Unknown
Apparent Declination
Unknown
Sunlit
N/A
Visualization observer readout
Local Sidereal Time
16:01:32
Azimuth
Unknown
Elevation
Unknown
Doppler factor
Unknown
Orbital elements
Apogee altitude
21,535.208 km
Perigee altitude
21,520.842 km
Semi-major axis
27,906.162 km
Eccentricity
0.00026
Inclination
56.4286°
RAAN
70.0829°
Arg. of periapsis
357.4781°
True anomaly
2.50169°
Mean anomaly
2.5004°
Eccentric anomaly
2.50104°
Mean motion
0.46558 °/min
Orbital period
773.23 mins
BSTAR
0
Loading maneuver chart data...
Computing Atmospheric mass density...
Loading historical data...
Loading historical data...
Loading historical data...
Loading historical data...
Loading historical data...
Loading historical data...
Loading historical data...
Other satellites on launch #72 in the year 2018 (2018-09-19 UTC)

Documentation

Showing up to 5 results
|